Ana Sayfa
METAR-TAF:

METAR-TAF

Havaalanları :

Austin, Teksas, Amerika Birleşik Devletleri

Enlem: 30-24-00N, Boylam: 097-34-25W, yükseklik: 189 m

Güncel hava durumu gözlemi

Rapor saat 19:35 UTC de 9 dakika önce yapıldı.
Sakin rüzgar
Sıcaklık 18°C
Nem 49%
Basınç 1024 hPa
Görüş mesafesi: 16.1 km
Açık gökyüzü

METAR: KEDC 071935Z AUTO 00000KT 10SM CLR 18/07 A3025 RMK AO2

Saat: 12:44 (19:44 UTC)


TAF: eksik

4.000'den fazla havaalanı için hava durumu gözlemleri ve tahminleri (METAR ve TAF raporları).

Kullanılabilir istasyonlar harita üzerinde sarı ve kırmızı noktalarla gösterilir.

İstasyonun adını görmek için fareyi noktanın üzerinde gezdirin.

Sonrasında hava gözlem ve tahminlerini görmek için tıklayın.

Haritayı değiştirmek için: yaklaştırmak için siyah artı işaretli yeşil düğmeye ve uzaklaştırmak için de eksi işaretli düğmeye hızla tıklayın; bitişik haritalar için yeşil okları kullanın.


METAR-TAF: